[[{"header":{"parameterUnit":"m.s-1","parameterCategory":1,"la1":30.2991,"la2":30.254,"lo1":-89.0895,"lo2":-89.0444,"dy":0.0017,"dx":0.0017,"nx":28,"ny":28,"refTime":"2023-11-06T09:00:00:Z","depth":0,"parameterNumber":2,"parameterNumberName":"U-component_of_WINDS"},"data":[0,0,0,0,0,0,0,0,0,0,0,0,0,0,0,0,0,0,0,0,0,0,0,0,0,0,0,0,0,0,0,0,0,0,0,0,0,0,0,0,0,0,0,0,0,0,0,0,0,0,0,0,0,0,0,0,0,0,0.0186,0.0186,0,0.0185,0.0185,0.0185,0.0224,0.0225,0.0226,0.0227,0.0225,0.0224,0.0223,0,0,0,0,0,0,0,0,0,0,0,0,0,0.022,0.022,0.0186,0.0186,0.0186,0.0185,0.0185,0.0185,0.0224,0.0225,0.0227,0.0228,0.0225,0.0224,0.0223,0,0,0,0,0,0,0,0,0,0,0,0,0,0.0211,0.0219,0.0186,0.0205,0.0207,0.0185,0.0185,0.0185,0.0224,0.0225,0.0227,0.0228,0.0226,0.0224,0.0223,0.0181,0,0,0.0218,0.0217,0,0,0,0,0,0,0,0,0.0211,0.021,0.0203,0.0204,0.0206,0.0206,0.0196,0.0183,0.0223,0.0217,0.0227,0.0229,0.0217,0.0217,0.0213,0.0181,0.0181,0.0218,0.0217,0.0216,0.0215,0,0,0,0,0,0,0,0.0212,0.021,0.0186,0.0202,0.0204,0.0214,0.0214,0.0194,0.0208,0.0218,0.0221,0.022,0.0219,0.0214,0.0213,0.0181,0.0218,0.0216,0.0215,0.0215,0.0114,0.0113,0,0,0,0,0,0,0.021,0.021,0.0186,0.0185,0.0213,0.0212,0.0212,0.0205,0.0209,0.0211,0.0219,0.0222,0.0216,0.0215,0.0213,0.0165,0.0216,0.0214,0.0214,0.0116,0.0114,0.0112,0,0,0,0,0,0,0.0211,0.0208,0.0186,0.0199,0.0196,0.0209,0.0201,0.0204,0.02,0.0209,0.0212,0.0212,0.0217,0.0215,0.0189,0.0165,0.0214,0.0212,0.0118,0.0116,0.0113,0.0068,0,0,0,0,0,0,0.0212,0.0208,0.0193,0.0198,0.0196,0.0162,0.0199,0.0203,0.0197,0.0201,0.0204,0.0206,0.0218,0.0191,0.0187,0.0164,0.0211,0.012,0.0117,0.0114,0.0072,0.0064,0.0058,0,0,0,0,0,0.0213,0.018,0.0192,0.0188,0.0177,0.016,0.0159,0.0175,0.0195,0.0179,0.0186,0.0206,0.0168,0.0188,0.0184,0.016,0.0122,0.0118,0.0114,0.0075,0.0066,0.0058,0,0,0,0,0,0,0.0171,0.0181,0.0194,0.0162,0.016,0.0167,0.0148,0.0165,0.0157,0.0161,0.018,0.018,0.0151,0.0153,0.0174,0.012,0.0149,0.0144,0.012,0.0111,0.0105,0.0105,0.021,0,0,0,0,0,0.0158,0.0144,0.0153,0.0124,0.0122,0.0135,0.0129,0.0141,0.0139,0.0139,0.0143,0.014,0.0128,0.012,0.0109,0.0072,0.0073,0.0053,0.0046,0.0041,0.0036,0.0016,0.0008,0.01,0.01,0.01,0,0,0.0131,0.0135,0.0125,0.0116,0.0116,0.01,0.0134,0.0117,0.0105,0.0136,0.0111,0.0114,0.0112,0.008,0.0066,0.0081,0.0011,0.0036,0.0031,0.003,0.0012,0.0003,-0.0005,0.0097,0.0097,0.0098,0,0,0.0075,0.0076,0.0052,0.0051,0.0051,0.0059,0.0053,0.0057,0.0061,0.0036,0.0059,0.0045,0.0023,0.0021,0.0017,-0.0042,-0.0024,-0.0046,-0.0082,-0.0101,-0.0108,-0.0115,-0.0136,-0.0143,-0.005,-0.005,-0.005,0,0.0042,0.002,0.0037,0.0018,0.0013,0.004,0.0015,0.0013,0.0009,0.0005,0.0021,-0.0006,-0.0005,-0.0037,-0.0052,-0.0056,-0.0063,-0.0045,-0.0109,-0.0115,-0.012,-0.014,-0.0148,-0.0053,-0.0053,-0.0052,-0.0052,0,-0.0021,-0.0036,-0.0056,-0.0061,-0.0068,-0.009,-0.0077,-0.0086,-0.0074,-0.0067,-0.0093,-0.0092,-0.0102,-0.0109,-0.0097,-0.014,-0.0131,-0.0112,-0.0082,-0.0132,-0.015,-0.0158,-0.0057,-0.0056,-0.0055,-0.0054,0,0,-0.0102,-0.0097,-0.0105,-0.0107,-0.0106,-0.0118,-0.014,-0.0149,-0.0158,-0.0162,-0.018,-0.0199,-0.0182,-0.0187,-0.0175,-0.0193,-0.0239,-0.0172,-0.0171,-0.0184,-0.0287,-0.03,-0.0309,-0.0228,-0.0229,-0.023,-0.0287,0,-0.0157,-0.0192,-0.0177,-0.0214,-0.0229,-0.0204,-0.0223,-0.0225,-0.022,-0.0232,-0.0226,-0.024,-0.0217,-0.0219,-0.0236,-0.023,-0.026,-0.0226,-0.0244,-0.0245,-0.0244,-0.0319,-0.0333,-0.0386,-0.0294,-0.0295,-0.0296,0,-0.0224,-0.0231,-0.027,-0.0267,-0.0272,-0.0289,-0.0297,-0.0309,-0.0311,-0.0306,-0.0312,-0.0297,-0.0318,-0.029,-0.0319,-0.0297,-0.0304,-0.0303,-0.0304,-0.0305,-0.0273,-0.0321,-0.0402,-0.041,-0.0307,-0.0306,-0.0305,0,-0.028,-0.0299,-0.0324,-0.0327,-0.0324,-0.0337,-0.0336,-0.0337,-0.0344,-0.0352,-0.0356,-0.0366,-0.0372,-0.038,-0.0368,-0.0349,-0.04,-0.037,-0.0396,-0.0397,-0.0407,-0.0406,-0.049,-0.0413,-0.0413,-0.0413,-0.0412,0,-0.0341,-0.0366,-0.0349,-0.0364,-0.0391,-0.0375,-0.0402,-0.0399,-0.0401,-0.0415,-0.0396,-0.041,-0.0394,-0.0408,-0.0399,-0.0424,-0.0427,-0.0424,-0.0421,-0.0425,-0.0426,-0.0429,-0.0425,-0.0415,-0.0414,-0.0414,-0.0414,0,-0.0407,-0.0397,-0.0423,-0.0419,-0.0418,-0.0438,-0.0435,-0.0449,-0.0443,-0.0463,-0.0466,-0.0457,-0.0472,-0.0461,-0.0476,-0.047,-0.0504,-0.0496,-0.0503,-0.0501,-0.0527,-0.0525,-0.0615,-0.0626,-0.0543,-0.0543,-0.0544,0,-0.0447,-0.0465,-0.0463,-0.0471,-0.0472,-0.0486,-0.0493,-0.0479,-0.0487,-0.0492,-0.0506,-0.0519,-0.0528,-0.0554,-0.0548,-0.056,-0.0552,-0.0583,-0.0553,-0.0557,-0.0552,-0.055,-0.0552,-0.0589,-0.059,-0.0591,-0.0591,0,-0.0518,-0.0512,-0.0523,-0.0533,-0.0541,-0.0548,-0.0553,-0.0562,-0.0547,-0.0558,-0.0572,-0.058,-0.0595,-0.0609,-0.0618,-0.0619,-0.0603,-0.0601,-0.0607,-0.0611,-0.0614,-0.0612,-0.0518,-0.0598,-0.0598,-0.0597,-0.0597,-0.0596,-0.0572,-0.0587,-0.0588,-0.0601,-0.0603,-0.0609,-0.0622,-0.0618,-0.063,-0.0641,-0.0632,-0.065,-0.0653,-0.0664,-0.0666,-0.068,-0.0668,-0.0677,-0.0679,-0.0682,-0.0685,-0.0613,-0.0682,-0.0682,-0.0682,-0.0682,-0.0681,0,-0.0642,-0.0641,-0.0653,-0.0661,-0.0672,-0.0656,-0.0661,-0.0671,-0.0687,-0.0691,-0.0701,-0.0718,-0.0731,-0.0727,-0.0739,-0.0751,-0.0744,-0.0755,-0.0753,-0.0754,-0.0696,-0.0689,-0.076,-0.076,-0.076,-0.076,-0.076,-0.076,-0.0679,-0.0704,-0.0698,-0.0724,-0.0724,-0.0741,-0.0745,-0.0751,-0.0754,-0.0774,-0.0785,-0.0782,-0.0783,-0.0795,-0.0807,-0.0805,-0.081,-0.0823,-0.0819,-0.0766,-0.0758,-0.075,-0.0743,-0.0825,-0.0825,-0.0875,-0.0876,-0.0876]},{"header":{"parameterUnit":"m.s-1","parameterCategory":1,"la1":30.2991,"la2":30.254,"lo1":-89.0895,"lo2":-89.0444,"dy":0.0017,"dx":0.0017,"nx":28,"ny":28,"refTime":"2023-11-06T09:00:00:Z","depth":0,"parameterNumber":3,"parameterNumberName":"V-component_of_WINDS"},"data":[0,0,0,0,0,0,0,0,0,0,0,0,0,0,0,0,0,0,0,0,0,0,0,0,0,0,0,0,0,0,0,0,0,0,0,0,0,0,0,0,0,0,0,0,0,0,0,0,0,0,0,0,0,0,0,0,0,0,-1.1677,-1.1678,0,-1.172,-1.1721,-1.1721,-1.1712,-1.1712,-1.1711,-1.171,-1.1752,-1.1754,-1.1755,0,0,0,0,0,0,0,0,0,0,0,0,0,-1.1585,-1.1587,-1.1677,-1.1678,-1.1678,-1.172,-1.1721,-1.1721,-1.1712,-1.1711,-1.1711,-1.171,-1.1751,-1.1753,-1.1756,0,0,0,0,0,0,0,0,0,0,0,0,0,-1.1626,-1.1587,-1.1677,-1.1679,-1.1679,-1.172,-1.1721,-1.1721,-1.1713,-1.1711,-1.171,-1.1709,-1.175,-1.1753,-1.1756,-1.1797,0,0,-1.1764,-1.1766,0,0,0,0,0,0,0,0,-1.1624,-1.1629,-1.1678,-1.1679,-1.1679,-1.171,-1.1704,-1.1747,-1.1713,-1.17,-1.171,-1.1709,-1.1739,-1.1742,-1.1753,-1.1799,-1.18,-1.1765,-1.1766,-1.1767,-1.1768,0,0,0,0,0,0,0,-1.1621,-1.1627,-1.1694,-1.1679,-1.168,-1.1677,-1.1681,-1.1712,-1.1725,-1.1701,-1.17,-1.1706,-1.1739,-1.175,-1.1754,-1.1801,-1.1764,-1.1767,-1.1769,-1.177,-1.1883,-1.1884,0,0,0,0,0,0,-1.1618,-1.1625,-1.1693,-1.1695,-1.1648,-1.1679,-1.1685,-1.1701,-1.1725,-1.1727,-1.1707,-1.1705,-1.1746,-1.1751,-1.1755,-1.1806,-1.1767,-1.177,-1.1772,-1.1882,-1.1883,-1.1885,0,0,0,0,0,0,-1.1616,-1.1624,-1.1691,-1.166,-1.1669,-1.1682,-1.1701,-1.1703,-1.1714,-1.1729,-1.1731,-1.1716,-1.1745,-1.1751,-1.1787,-1.1807,-1.1771,-1.1774,-1.188,-1.1882,-1.1884,-1.1906,0,0,0,0,0,0,-1.1613,-1.1623,-1.1639,-1.1661,-1.167,-1.1723,-1.1702,-1.1704,-1.1719,-1.1718,-1.1739,-1.1741,-1.1745,-1.1783,-1.1789,-1.181,-1.1776,-1.1878,-1.1881,-1.1883,-1.1903,-1.1908,-1.1913,0,0,0,0,0,-1.161,-1.1643,-1.164,-1.1648,-1.1691,-1.1724,-1.1729,-1.1733,-1.1721,-1.1737,-1.1747,-1.174,-1.1803,-1.1786,-1.1794,-1.1816,-1.1877,-1.188,-1.1883,-1.1901,-1.1907,-1.1912,0,0,0,0,0,0,-1.1623,-1.1646,-1.1643,-1.1684,-1.1702,-1.1722,-1.1743,-1.1739,-1.1761,-1.1758,-1.1762,-1.1767,-1.1803,-1.1812,-1.1793,-1.1857,-1.1838,-1.1843,-1.1849,-1.1855,-1.186,-1.1857,-1.1778,0,0,0,0,0,-1.163,-1.1656,-1.1674,-1.1709,-1.1718,-1.1729,-1.1743,-1.1745,-1.1764,-1.1771,-1.1783,-1.1801,-1.1825,-1.184,-1.1863,-1.1904,-1.1909,-1.1923,-1.1927,-1.1931,-1.1935,-1.1959,-1.1966,-1.1895,-1.1895,-1.1895,0,0,-1.1646,-1.1662,-1.1678,-1.1712,-1.1726,-1.1752,-1.1735,-1.1763,-1.1782,-1.1775,-1.181,-1.1819,-1.1839,-1.1878,-1.1896,-1.1887,-1.1956,-1.1935,-1.1938,-1.194,-1.1963,-1.1969,-1.1975,-1.1897,-1.1896,-1.1896,0,0,-1.1689,-1.1703,-1.1734,-1.1749,-1.1771,-1.1778,-1.1785,-1.1806,-1.1813,-1.1848,-1.1843,-1.1865,-1.1906,-1.1921,-1.1933,-1.1982,-1.1977,-1.1989,-1.2014,-1.2036,-1.2042,-1.2047,-1.2066,-1.2072,-1.1993,-1.1993,-1.1993,0,-1.1706,-1.1746,-1.175,-1.1779,-1.1794,-1.179,-1.1821,-1.1834,-1.1862,-1.1873,-1.1863,-1.1914,-1.1927,-1.197,-1.1982,-1.1992,-1.2001,-1.1987,-1.2041,-1.2046,-1.2051,-1.2069,-1.2075,-1.1995,-1.1994,-1.1994,-1.1994,0,-1.1766,-1.1794,-1.1816,-1.1845,-1.1862,-1.1892,-1.19,-1.1917,-1.1917,-1.1925,-1.1961,-1.1976,-1.2003,-1.2012,-1.2012,-1.2056,-1.205,-1.204,-1.2022,-1.2059,-1.2076,-1.2082,-1.1997,-1.1996,-1.1996,-1.1995,0,0,-1.1819,-1.185,-1.1858,-1.1872,-1.1896,-1.1917,-1.1946,-1.1973,-1.1988,-1.2007,-1.2032,-1.2066,-1.2058,-1.2073,-1.2074,-1.2094,-1.2133,-1.2082,-1.2082,-1.2092,-1.2183,-1.2191,-1.2199,-1.2129,-1.213,-1.2132,-1.2181,0,-1.1865,-1.1919,-1.1924,-1.1971,-1.1997,-1.1993,-1.2018,-1.2036,-1.2044,-1.2066,-1.2074,-1.21,-1.2086,-1.2095,-1.2114,-1.2124,-1.2151,-1.212,-1.2153,-1.2154,-1.215,-1.2207,-1.2216,-1.2262,-1.2188,-1.2189,-1.219,0,-1.1926,-1.1949,-1.2,-1.2021,-1.2032,-1.2055,-1.2081,-1.2102,-1.2121,-1.2126,-1.2142,-1.2141,-1.2171,-1.2151,-1.2192,-1.2171,-1.2185,-1.2191,-1.2193,-1.2198,-1.2175,-1.2214,-1.2277,-1.2285,-1.22,-1.2199,-1.2198,0,-1.1962,-1.2004,-1.2041,-1.2052,-1.2077,-1.2094,-1.2105,-1.2123,-1.2139,-1.216,-1.2171,-1.2195,-1.2208,-1.2227,-1.2232,-1.2217,-1.2274,-1.2254,-1.2279,-1.2279,-1.2292,-1.2292,-1.2359,-1.2298,-1.2298,-1.2298,-1.2298,0,-1.2014,-1.2045,-1.2057,-1.208,-1.2115,-1.2119,-1.2154,-1.2164,-1.218,-1.2204,-1.2201,-1.2223,-1.2228,-1.2251,-1.2255,-1.229,-1.2295,-1.23,-1.2301,-1.2301,-1.2301,-1.2311,-1.2309,-1.23,-1.2299,-1.2299,-1.2299,0,-1.206,-1.2069,-1.2108,-1.2129,-1.2135,-1.2161,-1.2178,-1.22,-1.2207,-1.2238,-1.2245,-1.2256,-1.2284,-1.229,-1.2322,-1.2325,-1.2366,-1.2363,-1.236,-1.2361,-1.2386,-1.2384,-1.2464,-1.2475,-1.2405,-1.2406,-1.2406,0,-1.2093,-1.2118,-1.2142,-1.2158,-1.217,-1.2196,-1.2213,-1.2218,-1.2235,-1.226,-1.2278,-1.2305,-1.2327,-1.2371,-1.2382,-1.2406,-1.2405,-1.2431,-1.2409,-1.2409,-1.2407,-1.2406,-1.2409,-1.2436,-1.2437,-1.2437,-1.2438,0,-1.2152,-1.2156,-1.218,-1.2207,-1.2227,-1.2247,-1.2267,-1.228,-1.2288,-1.2307,-1.2336,-1.2353,-1.2387,-1.2414,-1.2439,-1.2449,-1.2445,-1.2445,-1.2452,-1.2453,-1.2451,-1.2454,-1.2374,-1.2443,-1.2443,-1.2442,-1.2442,-1.2442,-1.2194,-1.2216,-1.2237,-1.2264,-1.228,-1.2298,-1.232,-1.2331,-1.2355,-1.2383,-1.2384,-1.2416,-1.2434,-1.2468,-1.248,-1.2504,-1.2496,-1.2506,-1.2509,-1.2512,-1.2515,-1.2446,-1.2508,-1.2508,-1.2508,-1.2508,-1.2507,0,-1.2254,-1.2267,-1.2292,-1.2321,-1.2343,-1.2337,-1.2359,-1.2377,-1.2405,-1.2423,-1.2446,-1.2479,-1.2505,-1.2518,-1.2544,-1.2561,-1.256,-1.2568,-1.2567,-1.257,-1.252,-1.2512,-1.2568,-1.2568,-1.2568,-1.2568,-1.2568,-1.2568,-1.2288,-1.2325,-1.2331,-1.2376,-1.2389,-1.2421,-1.2434,-1.2451,-1.2466,-1.2503,-1.2525,-1.2534,-1.255,-1.2577,-1.2601,-1.2604,-1.2615,-1.2624,-1.2626,-1.2579,-1.2573,-1.2567,-1.256,-1.2626,-1.2626,-1.2675,-1.2675,-1.2675]}]]